Hourly Weather Rudka

Today, 11 April, Sunday

Time Temperature Precipitation Wind Pressure Humidity
00:00 +5°C° 0 mm 2 mps 749 mmHg 58%
01:00 +4°C° 0 mm 2 mps 749 mmHg 59%
02:00 +4°C° 0 mm 2 mps 749 mmHg 61%
03:00 +4°C° 0 mm 2 mps 749 mmHg 61%
04:00 +4°C° 0 mm 1 mps 749 mmHg 61%
05:00 +4°C° 0 mm 1 mps 749 mmHg 61%
06:00 +6°C° 0 mm 1 mps 749 mmHg 57%
07:00 +7°C° 0 mm 1 mps 750 mmHg 53%
08:00 +8°C° 0 mm 1 mps 750 mmHg 49%
09:00 +10°C° 0 mm 1 mps 750 mmHg 45%
10:00 +10°C° 0 mm 2 mps 750 mmHg 40%
11:00 +12°C° 0 mm 2 mps 750 mmHg 36%
12:00 +13°C° 0 mm 2 mps 750 mmHg 34%
13:00 +13°C° 0 mm 2 mps 750 mmHg 33%
14:00 +14°C° 0 mm 2 mps 749 mmHg 31%
15:00 +14°C° 0 mm 2 mps 749 mmHg 32%
16:00 +14°C° 0 mm 2 mps 749 mmHg 33%
17:00 +13°C° 0 mm 3 mps 749 mmHg 34%
18:00 +12°C° 0 mm 2 mps 749 mmHg 39%
19:00 +10°C° 0 mm 2 mps 749 mmHg 44%
20:00 +8°C° 0 mm 2 mps 749 mmHg 50%
21:00 +8°C° 0 mm 2 mps 749 mmHg 50%
22:00 +7°C° 0 mm 2 mps 749 mmHg 51%
23:00 +7°C° 0 mm 2 mps 749 mmHg 52%

Tomorrow, 12 April, Monday

Time Temperature Precipitation Wind Pressure Humidity
00:00 +7°C° 0 mm 2 mps 749 mmHg 53%
01:00 +6°C° 0 mm 2 mps 748 mmHg 55%
02:00 +6°C° 0 mm 2 mps 748 mmHg 56%
03:00 +6°C° 0 mm 2 mps 748 mmHg 58%
04:00 +5°C° 0 mm 2 mps 748 mmHg 60%
05:00 +5°C° 0 mm 2 mps 747 mmHg 62%
06:00 +5°C° 0 mm 3 mps 747 mmHg 59%
07:00 +8°C° 0 mm 3 mps 747 mmHg 57%
08:00 +9°C° 0 mm 3 mps 747 mmHg 55%
09:00 +10°C° 0 mm 3 mps 747 mmHg 50%
10:00 +12°C° 0 mm 3 mps 746 mmHg 44%
11:00 +13°C° 0 mm 3 mps 746 mmHg 39%
12:00 +14°C° 0 mm 3 mps 746 mmHg 40%
13:00 +14°C° 0 mm 3 mps 745 mmHg 41%
14:00 +16°C° 0 mm 3 mps 745 mmHg 42%
15:00 +14°C° 0 mm 3 mps 745 mmHg 49%
16:00 +14°C° 0 mm 4 mps 745 mmHg 56%
17:00 +13°C° 0 mm 4 mps 745 mmHg 63%
18:00 +12°C° 0 mm 3 mps 745 mmHg 70%
19:00 +11°C° 0 mm 3 mps 745 mmHg 77%
20:00 +10°C° 0 mm 2 mps 745 mmHg 84%
21:00 +11°C° 0 mm 1 mps 745 mmHg 85%
22:00 +11°C° 0 mm 1 mps 745 mmHg 85%
23:00 +10°C° 0 mm 0 mps 744 mmHg 86%

Day after tomorrow, 13 April, Tuesday

Time Temperature Precipitation Wind Pressure Humidity
00:00 +10°C° 0 mm 0 mps 744 mmHg 86%
01:00 +11°C° 0 mm 1 mps 744 mmHg 86%
02:00 +11°C° 0 mm 1 mps 744 mmHg 87%
03:00 +10°C° 0 mm 1 mps 744 mmHg 87%
04:00 +10°C° 0 mm 1 mps 744 mmHg 88%
05:00 +10°C° 0 mm 1 mps 744 mmHg 88%
06:00 +10°C° 0 mm 1 mps 744 mmHg 87%
07:00 +10°C° 0 mm 0 mps 744 mmHg 86%
08:00 +10°C° 0 mm 0 mps 744 mmHg 85%
09:00 +12°C° 0 mm 1 mps 744 mmHg 83%
10:00 +12°C° 0 mm 1 mps 743 mmHg 81%
11:00 +12°C° 0 mm 1 mps 743 mmHg 80%
12:00 +12°C° 0 mm 1 mps 743 mmHg 81%
13:00 +12°C° 0 mm 2 mps 743 mmHg 82%
14:00 +12°C° 0 mm 2 mps 743 mmHg 83%
15:00 +12°C° 0.1 mm 2 mps 743 mmHg 85%
16:00 +12°C° 0.1 mm 2 mps 743 mmHg 87%
17:00 +12°C° 0.1 mm 2 mps 743 mmHg 89%
18:00 +10°C° 0.1 mm 2 mps 743 mmHg 89%
19:00 +10°C° 0.1 mm 2 mps 743 mmHg 90%
20:00 +10°C° 0.1 mm 2 mps 743 mmHg 90%
21:00 +9°C° 0 mm 2 mps 742 mmHg 89%
22:00 +9°C° 0 mm 2 mps 742 mmHg 87%
23:00 +9°C° 0 mm 3 mps 742 mmHg 86%

14 April, Wednesday

Time Temperature Precipitation Wind Pressure Humidity
00:00 +9°C° 0 mm 3 mps 742 mmHg 86%
01:00 +8°C° 0 mm 3 mps 742 mmHg 86%
02:00 +7°C° 0 mm 3 mps 741 mmHg 87%
03:00 +7°C° 0 mm 3 mps 741 mmHg 87%
04:00 +5°C° 0 mm 3 mps 741 mmHg 87%
05:00 +5°C° 0 mm 3 mps 741 mmHg 87%
06:00 +7°C° 0 mm 3 mps 741 mmHg 85%
07:00 +6°C° 0 mm 4 mps 741 mmHg 82%
08:00 +7°C° 0 mm 4 mps 741 mmHg 80%
09:00 +7°C° 0 mm 4 mps 741 mmHg 78%
10:00 +8°C° 0 mm 4 mps 741 mmHg 76%
11:00 +8°C° 0 mm 4 mps 741 mmHg 74%
12:00 +11°C° 0 mm 4 mps 741 mmHg 68%
13:00 +12°C° 0 mm 4 mps 740 mmHg 62%
14:00 +14°C° 0 mm 4 mps 740 mmHg 56%
15:00 +13°C° 0 mm 4 mps 740 mmHg 60%
16:00 +12°C° 0 mm 3 mps 740 mmHg 63%
17:00 +12°C° 0 mm 3 mps 740 mmHg 66%
18:00 +11°C° 0 mm 3 mps 740 mmHg 68%
19:00 +10°C° 0 mm 3 mps 740 mmHg 70%
20:00 +10°C° 0 mm 3 mps 740 mmHg 72%
21:00 +9°C° 0 mm 2 mps 740 mmHg 74%
22:00 +9°C° 0 mm 2 mps 740 mmHg 75%
23:00 +9°C° 0 mm 1 mps 740 mmHg 77%

15 April, Thursday

Time Temperature Precipitation Wind Pressure Humidity
00:00 +9°C° 0 mm 1 mps 740 mmHg 76%
01:00 +9°C° 0 mm 1 mps 739 mmHg 75%
02:00 +9°C° 0 mm 1 mps 739 mmHg 75%
03:00 +9°C° 0 mm 1 mps 739 mmHg 76%
04:00 +8°C° 0 mm 2 mps 739 mmHg 77%
05:00 +8°C° 0 mm 2 mps 739 mmHg 78%
06:00 +9°C° 0 mm 2 mps 739 mmHg 78%
07:00 +9°C° 0 mm 2 mps 738 mmHg 78%
08:00 +9°C° 0 mm 2 mps 738 mmHg 77%
09:00 +12°C° 0 mm 2 mps 738 mmHg 71%
10:00 +12°C° 0 mm 3 mps 738 mmHg 64%
11:00 +13°C° 0 mm 3 mps 738 mmHg 57%
12:00 +14°C° 0.1 mm 3 mps 738 mmHg 55%
13:00 +14°C° 0.1 mm 3 mps 737 mmHg 53%
14:00 +16°C° 0.1 mm 3 mps 737 mmHg 51%
15:00 +14°C° 0.2 mm 3 mps 737 mmHg 57%
16:00 +13°C° 0.2 mm 3 mps 737 mmHg 62%
17:00 +12°C° 0.2 mm 4 mps 737 mmHg 68%
18:00 +12°C° 0.3 mm 3 mps 737 mmHg 74%
19:00 +11°C° 0.3 mm 3 mps 737 mmHg 80%
20:00 +10°C° 0.3 mm 3 mps 737 mmHg 87%
21:00 +10°C° 0.5 mm 3 mps 736 mmHg 88%
22:00 +9°C° 0.5 mm 3 mps 736 mmHg 89%
23:00 +9°C° 0.5 mm 2 mps 736 mmHg 91%

16 April, Friday

Time Temperature Precipitation Wind Pressure Humidity
00:00 +9°C° 0.3 mm 2 mps 736 mmHg 91%
01:00 +9°C° 0.3 mm 3 mps 736 mmHg 92%
02:00 +9°C° 0.3 mm 3 mps 736 mmHg 92%
03:00 +9°C° 0.3 mm 3 mps 735 mmHg 92%
04:00 +9°C° 0.3 mm 3 mps 735 mmHg 93%
05:00 +8°C° 0.3 mm 4 mps 735 mmHg 93%
06:00 +8°C° 0 mm 5 mps 735 mmHg 91%
07:00 +8°C° 0 mm 5 mps 735 mmHg 90%
08:00 +8°C° 0 mm 6 mps 735 mmHg 89%
09:00 +8°C° 0.2 mm 6 mps 736 mmHg 89%
10:00 +8°C° 0.2 mm 7 mps 736 mmHg 88%
11:00 +7°C° 0.2 mm 8 mps 736 mmHg 88%
12:00 +8°C° 0.2 mm 7 mps 737 mmHg 89%
13:00 +6°C° 0.2 mm 7 mps 737 mmHg 90%
14:00 +6°C° 0.2 mm 7 mps 737 mmHg 91%
15:00 +6°C° 0.2 mm 8 mps 738 mmHg 91%
16:00 +6°C° 0.2 mm 8 mps 738 mmHg 91%
17:00 +6°C° 0.2 mm 8 mps 739 mmHg 90%
18:00 +5°C° 0.2 mm 8 mps 740 mmHg 90%
19:00 +5°C° 0.2 mm 8 mps 740 mmHg 90%
20:00 +5°C° 0.2 mm 8 mps 741 mmHg 90%
21:00 +4°C° 0 mm 8 mps 742 mmHg 89%
22:00 +4°C° 0 mm 8 mps 743 mmHg 89%
23:00 +2°C° 0 mm 8 mps 743 mmHg 88%
Show more